Regional Weather Roundup
Issued by NWS

Home | Current Version | Previous Version | Text Only | Print | Product List | Glossary Off
Versions: 1 2 3 4 5 6 7 8 9 10 11 12 13 14 15 16 17 18 19 20 21 22 23 24 25 26 27 28 29 30 31 32 33 34 35 36 37 38 39 40 41 42 43 44 45 46 47 48 49 50

000
ASUS43 KMKX 170500
RWRWI

WISCONSIN REGIONAL WEATHER ROUNDUP
NATIONAL WEATHER SERVICE MILWAUKEE/SULLIVAN WI
1200 AM CDT THU APR 17 2014

NOTE: "FAIR" INDICATES FEW OR NO CLOUDS BELOW 12,000 FEET WITH NO
SIGNIFICANT WEATHER AND/OR OBSTRUCTIONS TO VISIBILITY.

WIZ001-002-006>008-014>016-023>028-170600-
NORTHWEST WISCONSIN

CITY           SKY/WX    TMP DP  RH WIND       PRES   REMARKS
SUPERIOR ARPT  LGT SNOW  29  28  95 NE17G28   30.16S WCI  17
ASHLAND        LGT SNOW  28  27  96 NE20      30.13F FOG     WCI  15
HAYWARD        LGT SNOW  29  26  89 NE9       30.04F FOG     WCI  20
SIREN          LGT SNOW  28  27  95 NE10G16   30.03S WCI  19
RICE LAKE      CLOUDY    35  32  90 E12       29.99S FOG     WCI  26
LADYSMITH      CLOUDY    37  30  78 E13G18    30.02F WCI  28
EAU CLAIRE     NOT AVBL
MENOMONIE      RAIN      37  37  98 NE7       29.94S WCI  32
NEW RICHMOND   LGT RAIN  34  34 100 NE8       29.96R WCI  27
OSCEOLA        LGT SNOW  31  31 100 N7        30.01R WCI  24
$$

WIZ003>005-009-010-017-018-170600-
NORTH CENTRAL WISCONSIN

CITY           SKY/WX    TMP DP  RH WIND       PRES   REMARKS
WOODRUFF       LGT SNOW  32  29  90 SE14G21   30.08F WCI  22
RHINELANDER    LGT SNOW  30  28  92 SE13      30.10S FOG     WCI  20
EAGLE RIVER    LGT SNOW  30  29  98 SE9       30.11F VSB 1   WCI  21
LAND O LAKES   LGT SNOW  30  28  94 SE8       30.13F WCI  22
PHILLIPS       CLOUDY    31  28  88 E9        30.03F WCI  23
TOMAHAWK       LGT SNOW  32  29  89 E6        30.07S WCI  26
MEDFORD        CLOUDY    36  26  66 E9G18     30.02S WCI  29
MERRILL        FLURRIES  36  28  71 CALM      30.07S
$$

WIZ029-030-035-036-043>047-170600-
CENTRAL WISCONSIN

CITY           SKY/WX    TMP DP  RH WIND       PRES   REMARKS
WAUSAU         FLURRIES  37  27  67 SE20G31   30.06S WCI  27
MOSINEE        CLOUDY    36  27  69 E15G21    30.07S WCI  26
MARSHFIELD     CLOUDY    39  29  67 E17       30.00F WCI  30
STEVENS POINT  CLOUDY    37  25  62 E14G29    30.08S WCI  28
WAUPACA        CLOUDY    43  27  52 E15       30.10F
WAUTOMA        NOT AVBL
WISC RAPIDS    CLOUDY    41  28  60 SE15G25   30.04F
CAMP DOUGLAS   NOT AVBL
$$

WIZ011>013-019>022-031-037>040-048>050-170600-
NORTHEAST WISCONSIN

CITY           SKY/WX    TMP DP  RH WIND       PRES   REMARKS
ANTIGO         CLOUDY    31  26  80 SE16      30.11S WCI  20
STURGEON BAY   CLOUDY    36  28  75 SE10      30.21S WCI  28
GREEN BAY      CLOUDY    39  27  62 SE13G24   30.17F WCI  31
MANITOWOC      NOT AVBL
APPLETON       CLOUDY    39  27  60 SE17G24   30.13F WCI  30
CLINTONVILLE   CLOUDY    36  28  75 E7        30.14S WCI  30
OSHKOSH        CLOUDY    41  26  55 SE15G24   30.11F
$$

WIZ032>034-041-042-053>061-170600-
SOUTHWEST WISCONSIN

CITY           SKY/WX    TMP DP  RH WIND       PRES   REMARKS
LA CROSSE      CLOUDY    50  28  42 SE22      29.88F
SPARTA         CLOUDY    48  27  43 SE12G18   29.94F
VIROQUA        CLOUDY    46  29  53 SE22      29.91F
BOSCOBEL       CLOUDY    50  28  42 VRB7G17   29.95F
PRAIRIE DU CHI CLOUDY    50  27  40 SE18G24   29.91F
PLATTEVILLE    MOCLDY    46  29  51 SE18G26   29.99S
$$

WIZ056-057-062-063-064-067-068-170600-
SOUTH CENTRAL WISCONSIN

CITY           SKY/WX    TMP DP  RH WIND       PRES   REMARKS
BARABOO/DELLS  CLOUDY    46  27  48 SE16G25   30.02S
LONE ROCK      NOT AVBL
WATERTOWN      MOCLDY    41  28  59 SE10      30.09F
MADISON        CLOUDY    46  28  49 SE18      30.07S
MIDDLETON      CLOUDY    47  26  43 SE20      30.04F
MONROE         CLOUDY    45  29  54 SE20G29   30.04S
JANESVILLE     MOCLDY    45  27  49 SE17      30.08S
$$

WIZ051-052-058>065-066-070>072-170600-
SOUTHEAST WISCONSIN

CITY           SKY/WX    TMP DP  RH WIND       PRES   REMARKS
MILWAUKEE      CLOUDY    41  29  62 SE18      30.17S
WAUKESHA       MOCLDY    37  27  65 SE13      30.15R WCI  29
MILWAUKEE/TIMM CLOUDY    41  27  56 SE8G20    30.17S
RACINE         CLOUDY    40  29  64 SE15G22   30.18S WCI  32
BURLINGTON     CLOUDY    39  29  66 SW6       30.14R WCI  35
KENOSHA        CLOUDY    41  29  62 SE14      30.15F
FOND DU LAC    CLOUDY    41  26  55 SE20      30.11F
SHEBOYGAN      CLOUDY    39  26  59 SE15G26   30.17F WCI  31
WEST BEND      CLOUDY    39  25  56 SE14      30.15S WCI  31
JUNEAU         MOCLDY    42  24  49 SE16G23   30.11S
$$

LSZ147-162-170600-
LAKE SUPERIOR

STATION/POSITION TIME  TEMP    WIND        PRES    WAVE
                       AIR SEA DIR/SP/G            HT/PER
                 (UTC) (F)     (DEG/KT/KT) (MB)    (FT/S)
DEVILS ISLAND    0400   29      70/ 30/ 35 1023.3F
PORT WING        0400   29      50/ 25     1021.0F
SAXON HARBOR     0400           50/ 12/ 15 1020.3F
$$

LMZ867-665-643>646-170600-
LAKE MICHIGAN

STATION/POSITION TIME  TEMP    WIND        PRES    WAVE
                       AIR SEA DIR/SP/G            HT/PER
                 (UTC) (F)     (DEG/KT/KT) (MB)    (FT/S)
NORTHPORT PIER   0400   33      90/ 11/ 15 1024.0S
SISTER BAY       0423   34     130/ 11/ 15   N/A
SHEBOYGAN LAKESH 0400   39     140/ 19/ 21 1022.8R
PORT WASHINGTON  0400   38     170/  8/ 13 1022.4S
MILWAUKEE LAKESH 0400   40     150/ 13/ 15   N/A
KENOSHA   LAKESH 0400   40     160/ 15/ 18   N/A
$$

TC  - TEMPERATURE IN CELSIUS
VSB - VISIBILITY IN STATUTE MILES
WCI - WIND CHILL INDEX
HX  - HEAT INDEX




USA.gov is the U.S. government's official web portal to all federal, state and local government web resources and services.